GW3795 Weather Reports


time (UTC)temp
F
wind
direction
speed
knots
gust
knots
rain 1hr
in
rain 24hr
in
rain mn
in
humidity
%
barometer
mb
20260509013509 63 24 2.6 3.5 0.00 0.01 0.01 64 1010.7
20260509013004 64 6 3.5 3.5 0.02 0.01 0.01 60 1011.0
20260509012501 65 296 0.9 3.5 0.02 0.01 0.01 56 1010.9
20260509011958 65 276 2.6 5.2 0.02 0.00 0.00 54 1011.0
20260509011456 66 271 3.5 5.2 0.02 0.00 0.00 51 1010.7
20260509010953 66 7 7.8 7.8 0.00 0.00 0.00 51 1010.8
20260509010451 66 120 0.0 1.7 0.00 0.00 0.00 50 1010.9
20260509005947 66 13 1.7 3.5 0.00 0.00 0.00 52 1010.7
20260509005446 67 331 0.9 1.7 0.00 0.00 0.00 49 1010.7
20260509004945 67 75 0.0 3.5 0.00 0.00 0.00 46 1010.6
20260509004442 67 303 1.7 2.6 0.00 0.00 0.00 48 1010.7
20260509003940 67 341 1.7 2.6 0.00 0.00 0.00 45 1010.4
20260509003438 67 335 1.7 2.6 0.00 0.00 0.00 45 1010.3
20260509002935 67 268 1.7 1.7 0.00 0.00 0.00 44 1010.5
20260509002433 67 331 2.6 3.5 0.00 0.00 0.00 44 1010.2
20260509001930 68 4 1.7 3.5 0.00 0.00 0.00 46 1010.3
20260509001426 68 299 1.7 3.5 0.00 0.00 0.00 42 1010.4
20260509000923 68 261 0.0 3.5 0.00 0.00 0.00 42 1010.5
20260509000421 68 326 1.7 1.7 0.00 0.00 0.00 42 1010.5
20260508235916 68 315 1.7 2.6 0.00 0.00 0.00 41 1010.5
20260508235414 68 273 0.9 2.6 0.00 0.00 0.00 41 1010.2
20260508234911 68 312 0.9 2.6 0.00 0.00 0.00 42 1010.2
20260508234408 69 275 2.6 2.6 0.00 0.00 0.00 42 1010.3
20260508233906 68 288 1.7 2.6 0.00 0.00 0.00 42 1010.2
20260508233405 69 287 0.9 1.7 0.00 0.00 0.00 42 1010.2
20260508232901 69 182 0.9 1.7 0.00 0.00 0.00 41 1010.1
20260508232358 69 289 1.7 3.5 0.00 0.00 0.00 42 1010.4
20260508231856 69 268 1.7 3.5 0.00 0.00 0.00 40 1010.6
20260508231352 69 288 2.6 4.3 0.00 0.00 0.00 40 1010.5
20260508230849 69 305 0.0 3.5 0.00 0.00 0.00 40 1010.5
20260508230345 69 309 1.7 3.5 0.00 0.00 0.00 39 1010.3
20260508225843 69 295 0.9 5.2 0.00 0.00 0.00 39 1010.1
20260508225339 70 140 1.7 2.6 0.00 0.00 0.00 39 1010.2
20260508224838 70 313 3.5 7.8 0.00 0.00 0.00 38 1010.3
20260508224335 70 17 0.0 2.6 0.00 0.00 0.00 38 1010.1
20260508223832 70 248 2.6 5.2 0.00 0.00 0.00 37 1010.2
20260508223329 70 268 4.3 6.1 0.00 0.00 0.00 37 1009.8
20260508222827 70 316 5.2 5.2 0.00 0.00 0.00 37 1010.0
20260508222324 70 119 1.7 4.3 0.00 0.00 0.00 38 1010.2
20260508221821 70 269 3.5 7.0 0.00 0.00 0.00 37 1010.0
20260508221316 70 291 3.5 3.5 0.00 0.00 0.00 38 1010.0
20260508220813 70 267 1.7 4.3 0.00 0.00 0.00 37 1010.1
20260508220309 71 232 0.0 6.1 0.00 0.00 0.00 37 1010.1
20260508215806 71 229 0.0 5.2 0.00 0.00 0.00 37 1010.2
20260508215306 71 257 5.2 6.1 0.00 0.00 0.00 36 1010.1
20260508214800 71 342 0.0 5.2 0.00 0.00 0.00 36 1010.1
20260508214256 71 198 1.7 5.2 0.00 0.00 0.00 37 1009.8
20260508213753 71 225 7.8 9.6 0.00 0.00 0.00 35 1010.0
20260508213250 71 258 4.3 5.2 0.00 0.00 0.00 36 1010.2
20260508212747 71 123 1.7 5.2 0.00 0.00 0.00 36 1010.2
20260508212243 71 254 5.2 5.2 0.00 0.00 0.00 35 1010.1
20260508211739 71 178 1.7 4.3 0.00 0.00 0.00 36 1010.1
20260508211234 71 254 1.7 3.5 0.00 0.00 0.00 36 1010.3
20260508210732 71 162 3.5 5.2 0.00 0.00 0.00 34 1010.1
20260508210229 70 178 0.9 7.8 0.00 0.00 0.00 36 1010.5
20260508205726 71 141 3.5 7.8 0.00 0.00 0.00 35 1010.3
20260508205222 70 148 2.6 5.2 0.00 0.00 0.00 36 1010.6
20260508204718 70 234 1.7 7.0 0.00 0.00 0.00 36 1010.7
20260508204215 70 241 3.5 7.8 0.00 0.00 0.00 35 1010.8
20260508203711 70 249 4.3 4.3 0.00 0.00 0.00 35 1010.9
20260508203207 71 198 3.5 7.0 0.00 0.00 0.00 35 1011.0
20260508202703 71 289 3.5 7.0 0.00 0.00 0.00 34 1011.1
20260508202201 71 287 5.2 6.1 0.00 0.00 0.00 35 1010.9
20260508201657 71 328 3.5 7.8 0.00 0.00 0.00 34 1011.0
20260508201154 70 236 1.7 5.2 0.00 0.00 0.00 35 1011.2
20260508200651 70 234 8.7 11.3 0.00 0.00 0.00 35 1011.3
20260508200147 70 260 4.3 9.6 0.00 0.00 0.00 35 1011.2
20260508195644 70 270 2.6 5.2 0.00 0.00 0.00 34 1011.3
20260508195140 70 254 3.5 4.3 0.00 0.00 0.00 35 1011.5
20260508194637 70 306 7.0 7.0 0.00 0.00 0.00 33 1011.4
20260508194134 71 239 2.6 5.2 0.00 0.00 0.00 34 1011.4
20260508193631 70 254 2.6 7.8 0.00 0.00 0.00 33 1011.5
20260508193128 71 161 0.9 4.3 0.00 0.00 0.00 34 1011.4
20260508192624 71 281 3.5 10.4 0.00 0.00 0.00 33 1011.5
20260508192121 71 280 3.5 11.3 0.00 0.00 0.00 32 1011.5
20260508191618 72 253 2.6 10.4 0.00 0.00 0.00 32 1011.5
20260508191115 73 264 2.6 8.7 0.00 0.00 0.00 31 1011.7
20260508190612 72 155 0.9 4.3 0.00 0.00 0.00 32 1011.7
20260508190108 73 264 7.8 14.8 0.00 0.00 0.00 31 1012.0
20260508185606 73 290 4.3 8.7 0.00 0.00 0.00 31 1011.8
20260508185103 73 267 1.7 5.2 0.00 0.00 0.00 33 1011.9
20260508184600 72 259 9.6 10.4 0.00 0.00 0.00 32 1012.0
20260508184057 71 56 0.9 8.7 0.00 0.00 0.00 32 1012.0
20260508183553 71 251 7.0 9.6 0.00 0.00 0.00 33 1012.2
20260508183049 71 203 2.6 12.2 0.00 0.00 0.00 32 1012.4
20260508182546 71 167 2.6 12.2 0.00 0.00 0.00 32 1012.6
20260508182044 71 232 6.1 9.6 0.00 0.00 0.00 32 1012.7
20260508181544 71 258 8.7 10.4 0.00 0.00 0.00 32 1012.7
20260508181042 70 241 8.7 10.4 0.00 0.00 0.00 32 1013.0
20260508180538 71 218 0.9 13.0 0.00 0.00 0.00 34 1013.0
20260508180035 71 332 3.5 7.0 0.00 0.00 0.00 33 1012.9
20260508175531 71 138 3.5 10.4 0.00 0.00 0.00 34 1012.8
20260508175029 70 166 2.6 8.7 0.00 0.00 0.00 34 1013.0
20260508174526 69 239 7.8 10.4 0.00 0.00 0.00 33 1013.0
20260508174023 69 297 2.6 10.4 0.00 0.00 0.00 34 1013.1
20260508173520 70 299 5.2 11.3 0.00 0.00 0.00 33 1013.4
20260508173016 70 283 4.3 7.8 0.00 0.00 0.00 34 1013.2
20260508172513 70 234 11.3 11.3 0.00 0.00 0.00 34 1013.4
20260508172009 70 216 5.2 16.5 0.00 0.00 0.00 34 1013.5
20260508171506 70 213 2.6 7.8 0.00 0.00 0.00 36 1013.7
20260508171003 70 291 10.4 11.3 0.00 0.00 0.00 35 1013.7
20260508170500 70 229 4.3 8.7 0.00 0.00 0.00 36 1013.8
20260508165957 70 278 2.6 11.3 0.00 0.00 0.00 36 1014.0
20260508165455 69 342 7.0 10.4 0.00 0.00 0.00 37 1014.1
20260508164950 69 262 7.0 9.6 0.00 0.00 0.00 37 1013.9
20260508164447 69 185 2.6 9.6 0.00 0.00 0.00 38 1014.2
20260508163944 69 126 4.3 9.6 0.00 0.00 0.00 40 1014.5
20260508163442 69 237 7.0 7.0 0.00 0.00 0.00 38 1014.4
20260508162937 69 258 6.1 7.0 0.00 0.00 0.00 39 1014.6
20260508162435 68 303 6.1 9.6 0.00 0.00 0.00 39 1014.5
20260508161932 67 263 5.2 10.4 0.00 0.00 0.00 40 1014.7
20260508161429 67 310 3.5 8.7 0.00 0.00 0.00 38 1014.7
20260508160926 67 283 5.2 13.0 0.00 0.00 0.00 38 1014.7
20260508160425 67 252 4.3 8.7 0.00 0.00 0.00 39 1014.6
20260508155921 67 261 5.2 13.9 0.00 0.00 0.00 38 1014.8
20260508155418 67 350 3.5 7.0 0.00 0.00 0.00 39 1014.7
20260508154915 66 281 8.7 12.2 0.00 0.00 0.00 40 1014.9
20260508154413 66 254 5.2 9.6 0.00 0.00 0.00 40 1014.8
20260508153909 65 292 6.1 9.6 0.00 0.00 0.00 41 1014.8
20260508153406 65 318 4.3 11.3 0.00 0.00 0.00 41 1015.3
20260508152902 65 320 5.2 9.6 0.00 0.00 0.00 41 1015.2
20260508152359 65 288 7.8 9.6 0.00 0.00 0.00 41 1015.1
20260508151855 65 268 2.6 9.6 0.00 0.00 0.00 41 1015.2
20260508151352 64 263 10.4 12.2 0.00 0.00 0.00 41 1015.3
20260508150848 64 340 8.7 16.5 0.00 0.00 0.00 42 1015.4
20260508150346 64 249 6.1 11.3 0.00 0.00 0.00 42 1015.2
20260508145841 64 273 4.3 9.6 0.00 0.00 0.00 42 1015.5
20260508145338 64 313 7.8 10.4 0.00 0.00 0.00 42 1015.5
20260508144835 63 239 4.3 11.3 0.00 0.00 0.00 42 1015.4
20260508144333 63 323 3.5 9.6 0.00 0.00 0.00 43 1015.5
20260508143830 63 289 4.3 10.4 0.00 0.00 0.00 43 1015.3
20260508143327 62 342 9.6 10.4 0.00 0.00 0.00 42 1015.5
20260508142824 62 33 1.7 11.3 0.00 0.00 0.00 43 1015.6
20260508142321 62 59 0.9 12.2 0.00 0.00 0.00 43 1015.6
20260508141817 62 280 6.1 7.8 0.00 0.00 0.00 43 1015.7
20260508141314 61 241 9.6 10.4 0.00 0.00 0.00 43 1015.7
20260508140811 61 248 9.6 13.9 0.00 0.00 0.00 43 1015.7
20260508140308 61 288 7.0 11.3 0.00 0.00 0.00 43 1015.8
20260508135804 60 245 5.2 9.6 0.00 0.00 0.00 43 1015.7
20260508135300 60 15 10.4 10.4 0.00 0.00 0.00 43 1015.8
20260508134756 60 318 5.2 9.6 0.00 0.00 0.00 44 1015.9
20260508134253 60 302 6.1 12.2 0.00 0.00 0.00 44 1015.8
20260508133750 59 257 3.5 7.8 0.00 0.00 0.00 45 1015.7
20260508133248 59 265 7.8 9.6 0.00 0.00 0.00 45 1015.8
20260508132745 59 254 7.8 12.2 0.00 0.00 0.00 45 1016.0
20260508132242 58 296 4.3 10.4 0.00 0.00 0.00 45 1015.8
20260508131738 58 304 5.2 10.4 0.00 0.00 0.00 45 1015.8
20260508131235 58 274 5.2 11.3 0.00 0.00 0.00 46 1015.9
20260508130731 58 299 3.5 9.6 0.00 0.00 0.00 46 1015.8
20260508130229 57 302 7.8 11.3 0.00 0.00 0.00 47 1015.9
20260508125724 57 285 5.2 7.0 0.00 0.00 0.00 49 1015.7
20260508125221 56 336 2.6 9.6 0.00 0.00 0.00 47 1015.7
20260508124719 55 287 3.5 7.8 0.00 0.00 0.00 48 1015.6
20260508124216 55 270 5.2 7.8 0.00 0.00 0.00 50 1015.8
20260508123714 55 298 1.7 3.5 0.00 0.00 0.00 51 1015.6
20260508123212 54 289 2.6 3.5 0.00 0.00 0.00 52 1015.6
20260508122707 54 261 2.6 6.1 0.00 0.00 0.00 53 1015.6
20260508122205 53 276 1.7 2.6 0.00 0.00 0.00 56 1015.8
20260508121702 53 285 1.7 4.3 0.00 0.00 0.00 55 1015.7
20260508121200 53 296 0.9 4.3 0.00 0.00 0.00 54 1015.6
20260508120657 52 256 2.6 5.2 0.00 0.00 0.00 54 1015.7
20260508120156 52 256 3.5 3.5 0.00 0.00 0.00 55 1015.6
20260508115653 52 264 3.5 3.5 0.00 0.00 0.00 55 1015.7
20260508115149 52 331 0.9 5.2 0.00 0.00 0.00 55 1015.7
20260508114647 52 276 2.6 3.5 0.00 0.00 0.00 56 1015.7
20260508114143 52 62 0.9 3.5 0.00 0.00 0.00 54 1015.6
20260508113640 51 348 1.7 3.5 0.00 0.00 0.00 56 1015.4
20260508113139 51 308 0.0 3.5 0.00 0.00 0.00 59 1015.4
20260508112634 51 307 0.0 1.7 0.00 0.00 0.00 60 1015.3
20260508112131 51 7 0.0 0.9 0.00 0.00 0.00 60 1015.1
20260508111628 51 305 0.0 1.7 0.00 0.00 0.00 59 1015.3
20260508111125 51 6 0.0 1.7 0.00 0.00 0.00 58 1015.3
20260508110623 51 316 1.7 2.6 0.00 0.00 0.00 55 1015.3
20260508110120 51 19 0.0 0.9 0.00 0.00 0.00 58 1015.0
20260508105619 52 286 1.7 2.6 0.00 0.00 0.00 57 1015.1
20260508105117 52 294 0.9 2.6 0.00 0.00 0.00 55 1015.0
20260508104614 52 293 1.7 3.5 0.00 0.00 0.00 54 1015.0
20260508104111 52 301 1.7 3.5 0.00 0.00 0.00 53 1015.1
20260508103608 52 322 1.7 3.5 0.00 0.00 0.00 53 1015.2
20260508103105 52 322 2.6 4.3 0.00 0.00 0.00 53 1015.0
20260508102603 52 300 2.6 4.3 0.00 0.00 0.00 53 1015.2
20260508102100 52 264 3.5 5.2 0.00 0.00 0.00 52 1015.1
20260508101558 52 323 1.7 2.6 0.00 0.00 0.00 53 1015.1
20260508101055 52 311 1.7 3.5 0.00 0.00 0.00 54 1015.1
20260508100553 52 265 3.5 5.2 0.00 0.00 0.00 54 1015.1
20260508100049 51 309 2.6 5.2 0.00 0.00 0.00 53 1015.0
20260508095546 51 325 0.9 3.5 0.00 0.00 0.00 55 1015.1
20260508095043 51 267 1.7 3.5 0.00 0.00 0.00 56 1015.0
20260508094540 51 290 2.6 4.3 0.00 0.00 0.00 55 1014.9
20260508094037 51 321 1.7 3.5 0.00 0.00 0.00 57 1015.2
20260508093534 51 318 2.6 3.5 0.00 0.00 0.00 58 1015.2
20260508093032 50 319 2.6 4.3 0.00 0.00 0.00 56 1015.0
20260508092529 51 303 1.7 2.6 0.00 0.00 0.00 57 1015.0
20260508092028 51 265 3.5 5.2 0.00 0.00 0.00 55 1015.0
20260508091525 51 304 1.7 5.2 0.00 0.00 0.00 56 1015.0
20260508091021 50 274 2.6 3.5 0.00 0.00 0.00 57 1015.3
20260508090520 50 330 1.7 3.5 0.00 0.00 0.00 56 1015.1
20260508090016 50 286 2.6 4.3 0.00 0.00 0.00 57 1015.2
20260508085512 50 293 2.6 3.5 0.00 0.00 0.00 58 1015.2
20260508085009 49 310 0.9 4.3 0.00 0.00 0.00 58 1015.1
20260508084506 49 318 2.6 3.5 0.00 0.00 0.00 61 1015.0
20260508084004 49 324 1.7 2.6 0.00 0.00 0.00 60 1015.0
20260508083501 48 339 2.6 3.5 0.00 0.00 0.00 63 1015.0
20260508082956 48 13 3.5 4.3 0.00 0.00 0.00 63 1015.0
20260508082453 49 272 1.7 3.5 0.00 0.00 0.00 64 1014.9
20260508081951 50 319 1.7 2.6 0.00 0.00 0.00 60 1014.9
20260508081448 50 350 2.6 3.5 0.00 0.00 0.00 57 1015.0
20260508080943 50 341 3.5 4.3 0.00 0.00 0.00 56 1015.0
20260508080442 50 301 1.7 5.2 0.00 0.00 0.00 58 1014.8
20260508075939 50 342 1.7 3.5 0.00 0.00 0.00 59 1014.8
20260508075436 50 356 3.5 4.3 0.00 0.00 0.00 55 1014.8
20260508074933 50 314 2.6 4.3 0.00 0.00 0.00 56 1015.0
20260508074431 50 345 3.5 7.0 0.00 0.00 0.00 57 1015.0
20260508073927 49 3 2.6 5.2 0.00 0.00 0.00 58 1015.0
20260508073425 50 280 1.7 5.2 0.00 0.00 0.00 59 1014.8
20260508072922 50 18 3.5 6.1 0.00 0.00 0.00 58 1014.9
20260508072418 50 352 4.3 5.2 0.00 0.00 0.00 55 1014.9
20260508071915 50 311 3.5 4.3 0.00 0.00 0.00 55 1015.1
20260508071413 50 352 3.5 4.3 0.00 0.00 0.00 57 1015.2
20260508070911 50 317 3.5 5.2 0.00 0.00 0.00 55 1015.0
20260508070408 49 351 3.5 5.2 0.00 0.00 0.00 58 1015.0
20260508065906 49 12 4.3 5.2 0.00 0.00 0.00 60 1015.3
20260508065404 50 7 4.3 5.2 0.00 0.00 0.00 59 1015.0
20260508064902 50 16 3.5 5.2 0.00 0.00 0.00 59 1015.2
20260508064359 50 300 1.7 3.5 0.00 0.00 0.00 58 1015.3
20260508063857 50 321 1.7 4.3 0.00 0.00 0.00 56 1015.5
20260508063354 51 347 3.5 4.3 0.00 0.00 0.00 56 1015.5
20260508062851 51 335 1.7 4.3 0.00 0.00 0.00 55 1015.6
20260508062349 51 354 4.3 5.2 0.00 0.00 0.00 56 1015.7
20260508061846 51 332 2.6 3.5 0.00 0.00 0.00 55 1015.6
20260508061343 51 286 3.5 3.5 0.00 0.00 0.00 55 1015.7
20260508060839 51 298 0.9 2.6 0.00 0.00 0.00 55 1015.7
20260508060338 50 316 2.6 5.2 0.00 0.00 0.00 55 1015.7
20260508055838 50 321 0.0 2.6 0.00 0.00 0.00 57 1016.0
20260508055336 50 279 2.6 3.5 0.00 0.00 0.00 56 1015.5
20260508054832 51 338 0.0 2.6 0.00 0.00 0.00 57 1015.9
20260508054330 51 260 2.6 3.5 0.00 0.00 0.00 53 1015.8
20260508053826 51 290 3.5 3.5 0.00 0.00 0.00 52 1015.7
20260508053324 51 268 3.5 4.3 0.00 0.00 0.00 52 1016.0
20260508052821 51 312 1.7 2.6 0.00 0.00 0.00 55 1015.8
20260508052318 51 325 3.5 7.0 0.00 0.00 0.00 54 1015.8
20260508051814 50 313 0.9 2.6 0.00 0.00 0.00 54 1015.6
20260508051309 50 288 1.7 4.3 0.00 0.00 0.00 58 1015.6
20260508050806 49 353 2.6 4.3 0.00 0.00 0.00 57 1015.7
20260508050304 48 304 0.9 3.5 0.00 0.00 0.00 64 1015.7
20260508045759 48 333 0.9 1.7 0.00 0.00 0.00 68 1015.5
20260508045257 48 304 1.7 2.6 0.00 0.00 0.00 66 1015.6
20260508044754 48 283 0.9 1.7 0.00 0.00 0.00 71 1015.5
20260508044251 48 288 0.0 2.6 0.00 0.00 0.00 69 1015.7
20260508043747 48 37 2.6 2.6 0.00 0.00 0.00 69 1015.7
20260508043245 48 243 0.0 2.6 0.00 0.00 0.00 69 1015.7
20260508042741 48 275 0.0 2.6 0.00 0.00 0.00 67 1015.7
20260508042239 48 17 4.3 4.3 0.00 0.00 0.00 64 1015.7
20260508041735 48 27 0.0 1.7 0.00 0.00 0.00 67 1015.7
20260508041232 48 356 1.7 4.3 0.00 0.00 0.00 66 1015.7
20260508040728 48 8 3.5 5.2 0.00 0.00 0.00 65 1015.6
20260508040226 48 9 3.5 4.3 0.00 0.00 0.00 65 1015.5
20260508035723 48 319 0.9 1.7 0.00 0.00 0.00 68 1015.4
20260508035220 49 2 2.6 3.5 0.00 0.00 0.00 65 1015.4
20260508034717 48 330 1.7 3.5 0.00 0.00 0.00 65 1015.4
20260508034214 49 296 0.0 2.6 0.00 0.00 0.00 68 1015.4
20260508033711 49 331 1.7 2.6 0.00 0.00 0.00 65 1015.7
20260508033210 49 292 0.0 2.6 0.00 0.00 0.00 66 1015.7
20260508032706 49 19 3.5 4.3 0.00 0.00 0.00 62 1015.7
20260508032203 49 8 2.6 3.5 0.00 0.00 0.00 63 1015.7
20260508031700 49 18 5.2 5.2 0.00 0.00 0.00 61 1015.6
20260508031156 49 2 3.5 5.2 0.00 0.00 0.00 62 1015.7
20260508030653 49 341 1.7 2.6 0.00 0.00 0.00 67 1015.5
20260508030151 49 338 1.7 4.3 0.00 0.00 0.00 63 1015.6
20260508025647 50 271 1.7 2.6 0.00 0.00 0.00 68 1015.6
20260508025144 50 350 0.9 4.3 0.00 0.00 0.00 64 1015.4
20260508024640 50 18 2.6 4.3 0.00 0.00 0.00 61 1015.4
20260508024137 50 356 1.7 2.6 0.00 0.00 0.00 62 1015.4
20260508023633 50 12 3.5 3.5 0.00 0.00 0.00 61 1015.6
20260508023131 50 307 2.6 3.5 0.00 0.00 0.00 64 1015.5
20260508022626 51 340 2.6 4.3 0.00 0.00 0.00 60 1015.1
20260508022124 50 1 4.3 4.3 0.00 0.00 0.00 60 1015.4
20260508021619 50 1 5.2 6.1 0.00 0.00 0.00 60 1015.6
20260508021115 49 2 2.6 3.5 0.00 0.00 0.00 68 1015.3
20260508020614 50 267 0.9 2.6 0.00 0.00 0.00 68 1015.4
20260508020111 50 263 1.7 2.6 0.00 0.00 0.00 68 1015.5
20260508015608 51 273 1.7 3.5 0.00 0.00 0.00 67 1015.4
20260508015105 52 43 0.9 1.7 0.00 0.00 0.00 64 1015.4
20260508014601 52 318 0.0 2.6 0.00 0.00 0.00 59 1015.3
20260508014057 52 12 3.5 4.3 0.00 0.00 0.00 55 1015.6